Tracking 19562 objects as of 24-Mar-2019
HD Live streaming from Space Station
objects crossing your sky now

LEMUR 2 TALLHAMN-ATC

Track LEMUR 2 TALLHAMN-ATC now!
10-day predictions
LEMUR 2 TALLHAMN-ATC is classified as:


NORAD ID: 43167
Int'l Code: 2018-010E
Perigee: 504.0 km
Apogee: 537.7 km
Inclination: 82.9 °
Period: 94.9 minutes
Semi major axis: 6891 km
RCS: Unknown
Launch date: January 21, 2018
Source: United States (US)
Launch site: Rocket Lab Launch Complex (RLLC)
aabbcc
Your satellite tracking list
Your tracking list is empty




NASA's NSSDC Master Catalog

Two Line Element Set (TLE):
1 43167U 18010E   19081.53852093 +.00001309 +00000-0 +63371-4 0  9992
2 43167 082.9182 102.1247 0024435 195.5416 164.5072 15.17384171064495
Source of the keplerian elements: AFSPC